This demonstration page uses our WeatherBlox Daily Observations layout. Learn more.

Left ArrowRight Arrow

Hourly Observations for April 9, 2020

Temp ( °F °C ) Dew Point ( °F °C ) Humidity (%) Winds ( mph kmh ) Pressure ( in mb ) Visibility ( mi km ) Precip ( " mm )
12:51 am 00:51 Clear 59 15 38 3.3 46 46 WNW 14 22 29.91 1013 10 16.0934 0 0
1:51 am 01:51 Clear 57 13.9 38 3.3 49 49 WNW 13 20 29.91 1013 10 16.0934 0 0
2:51 am 02:51 Clear 54 12.2 38 3.3 55 55 WNW 5 7 29.91 1013 10 16.0934 0 0
3:51 am 03:51 Clear 52 11.1 38 3.3 59 59 WNW 8 13 29.93 1013 10 16.0934 0 0
4:51 am 04:51 Clear 53 11.7 39 3.9 59 59 NW 16 26 29.94 1014 10 16.0934 0 0
5:51 am 05:51 Partly Cloudy 53 11.7 39 3.9 59 59 NW 16 26 29.96 1015 10 16.0934 0 0
6:51 am 06:51 Mostly Sunny 55 12.8 40 4.4 57 57 WNW 12 19 29.98 1015 10 16.0934 0 0
7:51 am 07:51 Sunny 58 14.4 40 4.4 51 51 W 14 22 29.98 1015 10 16.0934 0 0
8:51 am 08:51 Sunny 60 15.6 41 5 50 50 W 10 17 29.99 1016 10 16.0934 0 0
9:51 am 09:51 Sunny 63 17.2 41 5 45 45 WNW 7 11 29.99 1016 10 16.0934 0 0
10:51 am 10:51 Sunny 65 18.3 40 4.4 40 40 WSW 7 11 29.97 1015 10 16.0934 0 0
11:51 am 11:51 Sunny 68 20 38 3.3 33 33 VRB 6 9 29.94 1014 10 16.0934 0 0
12:51 pm 12:51 Sunny 72 22.2 37 2.8 28 28 VRB 6 9 29.91 1013 10 16.0934 0 0
1:51 pm 13:51 Sunny 75 23.9 31 -0.6 20 20 NNE 9 15 29.87 1012 10 16.0934 0 0
2:51 pm 14:51 Sunny 76 24.4 32 0 20 20 VRB 5 7 29.85 1011 10 16.0934 0 0
3:51 pm 15:51 Sunny 75 23.9 32 0 21 21 N 7 11 29.84 1010 10 16.0934 0 0
4:51 pm 16:51 Sunny 75 23.9 28 -2.2 18 18 WSW 9 15 29.83 1010 10 16.0934 0 0
5:51 pm 17:51 Sunny 73 22.8 30 -1.1 20 20 NW 7 11 29.83 1010 10 16.0934 0 0
6:51 pm 18:51 Clear 69 20.6 30 -1.1 23 23 WNW 12 19 29.83 1010 10 16.0934 0 0
7:51 pm 19:51 Clear 65 18.3 31 -0.6 28 28 WNW 14 22 29.86 1011 10 16.0934 0 0
8:51 pm 20:51 Clear 62 16.7 33 0.6 34 34 WNW 10 17 29.89 1012 10 16.0934 0 0
9:51 pm 21:51 Clear 60 15.6 32 0 35 35 WNW 12 19 29.9 1013 10 16.0934 0 0
10:51 pm 22:51 Clear 58 14.4 30 -1.1 35 35 NW 9 15 29.91 1013 10 16.0934 0 0
11:51 pm 23:51 Clear 55 12.8 29 -1.7 37 37 NW 6 9 29.92 1013 10 16.0934 0 0

Powered by AerisWeather